AAL1263 KDCA-MYNN

Flight info

Callsign AAL1263
Flight time 2h 21m
Altitude 36000
Route AMEEE1 SCOOB DCT EARZZ DCT SKARP DCT IDOLS DCT FLRDA AR18 OZENA DCT NUCAR AR3 KURAY
Aircraft B38M/M-SDE1FGHILORVWXY/HB1

Departure

Time 2026-05-05 21:25
Airport Ronald Reagan Washington National Airport (KDCA)

Arrival

Time 2026-05-05 23:46
Airport Lynden Pindling International Airport (MYNN)
Time Latitude Longitude Altitude Speed Heading
2026-05-05 21:11 38.85166 -77.04049 26 ft 0 kts 317°
2026-05-05 21:15 38.85165 -77.04049 26 ft 1 kts 317°
2026-05-05 21:15 38.85156 -77.04037 26 ft 3 kts 317°
2026-05-05 21:15 38.85141 -77.04020 26 ft 3 kts 318°
2026-05-05 21:16 38.85125 -77.04005 26 ft 3 kts 343°
2026-05-05 21:16 38.85114 -77.04004 26 ft 3 kts 47°
2026-05-05 21:16 38.85111 -77.04012 26 ft 1 kts 81°
2026-05-05 21:16 38.85108 -77.04034 26 ft 2 kts 81°
2026-05-05 21:17 38.85107 -77.04042 26 ft 0 kts 81°
2026-05-05 21:20 38.85109 -77.04030 26 ft 3 kts 80°
2026-05-05 21:20 38.85118 -77.03986 26 ft 2 kts 68°
2026-05-05 21:21 38.85134 -77.03969 26 ft 5 kts 14°
2026-05-05 21:21 38.85168 -77.03944 26 ft 9 kts 33°
2026-05-05 21:21 38.85259 -77.03927 26 ft 18 kts 355°
2026-05-05 21:21 38.85404 -77.03942 26 ft 23 kts 356°
2026-05-05 21:22 38.85570 -77.03958 27 ft 17 kts 355°
2026-05-05 21:22 38.85624 -77.03964 27 ft 9 kts 355°
2026-05-05 21:22 38.85726 -77.03975 28 ft 22 kts 355°
2026-05-05 21:22 38.85901 -77.03990 27 ft 23 kts
2026-05-05 21:23 38.85990 -77.03961 27 ft 0 kts 16°
2026-05-05 21:23 38.85998 -77.03958 27 ft 0 kts 16°
2026-05-05 21:24 38.86014 -77.03952 27 ft 7 kts 16°
2026-05-05 21:24 38.86086 -77.03884 26 ft 11 kts 101°
2026-05-05 21:24 38.85997 -77.03860 27 ft 20 kts 176°
2026-05-05 21:25 38.85773 -77.03839 27 ft 59 kts 176°
2026-05-05 21:25 38.85106 -77.03773 27 ft 130 kts 175°
2026-05-05 21:25 38.84054 -77.03665 362 ft 163 kts 178°
2026-05-05 21:25 38.82915 -77.03568 1265 ft 160 kts 180°
2026-05-05 21:26 38.81773 -77.03335 2073 ft 175 kts 174°
2026-05-05 21:26 38.80477 -77.03031 2600 ft 203 kts 175°
2026-05-05 21:26 38.79019 -77.02691 3287 ft 220 kts 175°
2026-05-05 21:26 38.77495 -77.02340 4247 ft 224 kts 176°
2026-05-05 21:27 38.75955 -77.01982 5251 ft 229 kts 172°
2026-05-05 21:27 38.74437 -77.01064 5930 ft 256 kts 152°
2026-05-05 21:27 38.72926 -76.99740 6698 ft 267 kts 152°
2026-05-05 21:27 38.71380 -76.98389 7613 ft 273 kts 152°
2026-05-05 21:28 38.69788 -76.96991 8402 ft 282 kts 153°
2026-05-05 21:28 38.68152 -76.95549 9291 ft 288 kts 152°
2026-05-05 21:28 38.66475 -76.94069 10082 ft 297 kts 153°
2026-05-05 21:28 38.64737 -76.92536 10675 ft 312 kts 152°
2026-05-05 21:29 38.62902 -76.90916 11183 ft 327 kts 152°
2026-05-05 21:29 38.61001 -76.89237 11870 ft 334 kts 151°
2026-05-05 21:29 38.59083 -76.87548 12740 ft 336 kts 151°
2026-05-05 21:29 38.57141 -76.85836 13483 ft 342 kts 151°
2026-05-05 21:30 38.55160 -76.84087 14151 ft 348 kts 150°
2026-05-05 21:30 38.53171 -76.82305 14867 ft 351 kts 150°
2026-05-05 21:30 38.51161 -76.80508 15549 ft 354 kts 150°
2026-05-05 21:30 38.49131 -76.78694 16228 ft 358 kts 150°
2026-05-05 21:31 38.47085 -76.76868 16899 ft 361 kts 149°
2026-05-05 21:31 38.45018 -76.75025 17555 ft 364 kts 149°
2026-05-05 21:31 38.42929 -76.73163 18190 ft 367 kts 150°
2026-05-05 21:31 38.40714 -76.71698 18704 ft 361 kts 168°
2026-05-05 21:32 38.38260 -76.71102 19208 ft 360 kts 176°
2026-05-05 21:32 38.35732 -76.70629 19703 ft 364 kts 176°
2026-05-05 21:32 38.33216 -76.70186 20206 ft 367 kts 176°
2026-05-05 21:32 38.30708 -76.69761 20725 ft 370 kts 176°
2026-05-05 21:33 38.28149 -76.69340 21249 ft 372 kts 176°
2026-05-05 21:33 38.25567 -76.68921 21777 ft 375 kts 176°
2026-05-05 21:33 38.22970 -76.68501 22297 ft 378 kts 176°
2026-05-05 21:33 38.20346 -76.68078 22816 ft 381 kts 176°
2026-05-05 21:34 38.17704 -76.67653 23346 ft 384 kts 176°
2026-05-05 21:34 38.15040 -76.67225 23803 ft 388 kts 176°
2026-05-05 21:34 38.12350 -76.66793 24207 ft 391 kts 176°
2026-05-05 21:34 38.09628 -76.66426 24578 ft 394 kts 181°
2026-05-05 21:35 38.06877 -76.66278 25003 ft 398 kts 181°
2026-05-05 21:35 38.04100 -76.66106 25417 ft 402 kts 181°
2026-05-05 21:35 38.01296 -76.65920 25825 ft 405 kts 181°
2026-05-05 21:35 37.98468 -76.65728 26232 ft 409 kts 181°
2026-05-05 21:36 37.95618 -76.65531 26643 ft 412 kts 181°
2026-05-05 21:36 37.92737 -76.65332 27025 ft 416 kts 181°
2026-05-05 21:36 37.89839 -76.65131 27416 ft 419 kts 181°
2026-05-05 21:36 37.86915 -76.64929 27763 ft 423 kts 181°
2026-05-05 21:37 37.83957 -76.64726 28120 ft 427 kts 181°
2026-05-05 21:37 37.80977 -76.64520 28506 ft 430 kts 181°
2026-05-05 21:37 37.77974 -76.64313 28862 ft 434 kts 181°
2026-05-05 21:37 37.74950 -76.64105 29216 ft 437 kts 181°
2026-05-05 21:38 37.71905 -76.63895 29571 ft 440 kts 181°
2026-05-05 21:38 37.68832 -76.63684 29925 ft 443 kts 181°
2026-05-05 21:38 37.65742 -76.63472 30227 ft 446 kts 181°
2026-05-05 21:38 37.62626 -76.63259 30496 ft 450 kts 181°
2026-05-05 21:39 37.59492 -76.63071 30770 ft 451 kts 185°
2026-05-05 21:39 37.56378 -76.63413 31016 ft 450 kts 192°
2026-05-05 21:39 37.53256 -76.63852 31269 ft 454 kts 192°
2026-05-05 21:39 37.50108 -76.64280 31552 ft 457 kts 192°
2026-05-05 21:40 37.46938 -76.64713 31816 ft 460 kts 192°
2026-05-05 21:40 37.43749 -76.65149 32093 ft 463 kts 192°
2026-05-05 21:40 37.40538 -76.65588 32323 ft 466 kts 192°
2026-05-05 21:40 37.37294 -76.66030 32520 ft 470 kts 193°
2026-05-05 21:41 37.34037 -76.66475 32822 ft 472 kts 193°
2026-05-05 21:41 37.30757 -76.66922 33071 ft 476 kts 193°
2026-05-05 21:41 37.27458 -76.67372 33340 ft 478 kts 193°
2026-05-05 21:41 37.24142 -76.67823 33602 ft 481 kts 193°
2026-05-05 21:42 37.20803 -76.68276 33843 ft 484 kts 193°
2026-05-05 21:42 37.17449 -76.68731 34104 ft 485 kts 193°
2026-05-05 21:42 37.14087 -76.69186 34396 ft 486 kts 193°
2026-05-05 21:42 37.10732 -76.69641 34739 ft 485 kts 193°
2026-05-05 21:43 37.07380 -76.70095 35080 ft 484 kts 193°
2026-05-05 21:43 37.04037 -76.70547 35414 ft 483 kts 193°
2026-05-05 21:43 37.00701 -76.70998 35728 ft 482 kts 193°
2026-05-05 21:43 36.97362 -76.71450 35979 ft 483 kts 193°
2026-05-05 21:44 36.90677 -76.72352 35993 ft 482 kts 193°
2026-05-05 21:44 36.84013 -76.73249 36024 ft 482 kts 193°
2026-05-05 21:45 36.77389 -76.74140 36024 ft 482 kts 193°
2026-05-05 21:45 36.70677 -76.75041 36017 ft 482 kts 193°
2026-05-05 21:46 36.64035 -76.75931 36030 ft 483 kts 193°
2026-05-05 21:46 36.57352 -76.76824 36030 ft 483 kts 193°
2026-05-05 21:47 36.50665 -76.77717 36031 ft 483 kts 193°
2026-05-05 21:47 36.43968 -76.78610 36041 ft 485 kts 192°
2026-05-05 21:48 36.37248 -76.79504 36035 ft 485 kts 192°
2026-05-05 21:48 36.30533 -76.80396 36046 ft 485 kts 192°
2026-05-05 21:49 36.23816 -76.81286 36039 ft 486 kts 192°
2026-05-05 21:49 36.17083 -76.82177 36055 ft 487 kts 192°
2026-05-05 21:50 36.10347 -76.83067 36058 ft 487 kts 192°
2026-05-05 21:50 36.03655 -76.83950 36058 ft 487 kts 192°
2026-05-05 21:51 35.96870 -76.84844 36064 ft 488 kts 192°
2026-05-05 21:51 35.90210 -76.85961 36045 ft 478 kts 204°
2026-05-05 21:52 35.80772 -76.89695 36082 ft 475 kts 205°
2026-05-05 21:53 35.74474 -76.92180 36072 ft 476 kts 205°
2026-05-05 21:53 35.68165 -76.94667 36080 ft 476 kts 205°
2026-05-05 21:54 35.61848 -76.97154 36082 ft 476 kts 205°
2026-05-05 21:54 35.55538 -76.99634 36082 ft 476 kts 205°
2026-05-05 21:55 35.49215 -77.02114 36083 ft 478 kts 205°
2026-05-05 21:55 35.42878 -77.04597 36082 ft 478 kts 205°
2026-05-05 21:56 35.36541 -77.07075 36084 ft 478 kts 205°
2026-05-05 21:56 35.30203 -77.09549 36085 ft 478 kts 205°
2026-05-05 21:57 35.23904 -77.12004 36087 ft 478 kts 205°
2026-05-05 21:57 35.17569 -77.14469 36088 ft 478 kts 205°
2026-05-05 21:58 35.11229 -77.16933 36109 ft 478 kts 205°
2026-05-05 21:58 35.05916 -77.18993 36097 ft 478 kts 205°
2026-05-05 21:59 34.99570 -77.21452 36112 ft 479 kts 205°
2026-05-05 21:59 34.93226 -77.23906 36092 ft 479 kts 205°
2026-05-05 22:00 34.86860 -77.26363 36103 ft 480 kts 205°
2026-05-05 22:00 34.80532 -77.28802 36086 ft 481 kts 205°
2026-05-05 22:01 34.74141 -77.31261 36103 ft 482 kts 205°
2026-05-05 22:01 34.67756 -77.33714 36100 ft 481 kts 205°
2026-05-05 22:02 34.61367 -77.36165 36100 ft 481 kts 205°
2026-05-05 22:02 34.54977 -77.38613 36096 ft 482 kts 205°
2026-05-05 22:03 34.48563 -77.41003 36102 ft 487 kts 199°
2026-05-05 22:03 34.41837 -77.42367 36116 ft 491 kts 196°
2026-05-05 22:04 34.35089 -77.43694 36107 ft 491 kts 196°
2026-05-05 22:04 34.28334 -77.45015 36105 ft 492 kts 196°
2026-05-05 22:05 34.21572 -77.46334 36106 ft 492 kts 196°
2026-05-05 22:05 34.14806 -77.47652 36105 ft 492 kts 196°
2026-05-05 22:06 34.08044 -77.48968 36084 ft 492 kts 196°
2026-05-05 22:06 34.01275 -77.50283 36105 ft 493 kts 196°
2026-05-05 22:07 33.94503 -77.51596 36104 ft 493 kts 196°
2026-05-05 22:07 33.87728 -77.52907 36104 ft 493 kts 196°
2026-05-05 22:08 33.80957 -77.54216 36094 ft 493 kts 196°
2026-05-05 22:08 33.74183 -77.55523 36103 ft 493 kts 196°
2026-05-05 22:09 33.67407 -77.56828 36103 ft 493 kts 196°
2026-05-05 22:09 33.60629 -77.58133 36101 ft 493 kts 196°
2026-05-05 22:10 33.53990 -77.59749 36112 ft 490 kts 200°
2026-05-05 22:10 33.47318 -77.61448 36507 ft 490 kts 200°
2026-05-05 22:10 33.43981 -77.62289 36772 ft 490 kts 200°
2026-05-05 22:11 33.40646 -77.63128 37062 ft 489 kts 200°
2026-05-05 22:11 33.37318 -77.63965 37321 ft 489 kts 200°
2026-05-05 22:11 33.33984 -77.64802 37583 ft 489 kts 200°
2026-05-05 22:11 33.30657 -77.65638 37810 ft 489 kts 200°
2026-05-05 22:12 33.27332 -77.66472 38042 ft 489 kts 200°
2026-05-05 22:12 33.20668 -77.68140 38101 ft 488 kts 200°
2026-05-05 22:13 33.14039 -77.69799 38108 ft 487 kts 200°
2026-05-05 22:13 33.07402 -77.71457 38092 ft 487 kts 200°
2026-05-05 22:14 33.00769 -77.73111 38108 ft 487 kts 200°
2026-05-05 22:14 32.94141 -77.74761 38104 ft 487 kts 200°
2026-05-05 22:15 32.87510 -77.76410 38105 ft 487 kts 200°
2026-05-05 22:15 32.80881 -77.78055 38108 ft 487 kts 200°
2026-05-05 22:16 32.74249 -77.79699 38107 ft 487 kts 200°
2026-05-05 22:16 32.67663 -77.81329 38101 ft 487 kts 200°
2026-05-05 22:17 32.61032 -77.82968 38105 ft 487 kts 200°
2026-05-05 22:17 32.54403 -77.84604 38095 ft 487 kts 200°
2026-05-05 22:18 32.47773 -77.86236 38104 ft 486 kts 200°
2026-05-05 22:18 32.41146 -77.87867 38103 ft 486 kts 200°
2026-05-05 22:19 32.34521 -77.89494 38104 ft 486 kts 200°
2026-05-05 22:19 32.27895 -77.91119 38078 ft 486 kts 201°
2026-05-05 22:20 32.21269 -77.92742 38104 ft 487 kts 201°
2026-05-05 22:20 32.14644 -77.94361 38102 ft 486 kts 201°
2026-05-05 22:21 32.08019 -77.95979 38078 ft 486 kts 201°
2026-05-05 22:21 32.01382 -77.97597 38079 ft 487 kts 201°
2026-05-05 22:22 31.94754 -77.99211 38100 ft 486 kts 201°
2026-05-05 22:22 31.88132 -78.00821 38103 ft 486 kts 201°
2026-05-05 22:23 31.81553 -78.02417 38100 ft 486 kts 201°
2026-05-05 22:23 31.74934 -78.04022 38085 ft 485 kts 201°
2026-05-05 22:24 31.68331 -78.05620 38098 ft 484 kts 201°
2026-05-05 22:24 31.61728 -78.07215 38100 ft 484 kts 201°
2026-05-05 22:25 31.55128 -78.08809 38099 ft 484 kts 201°
2026-05-05 22:25 31.48524 -78.10400 38081 ft 484 kts 202°
2026-05-05 22:26 31.41921 -78.11956 38095 ft 485 kts 201°
2026-05-05 22:26 31.35295 -78.13432 38097 ft 485 kts 201°
2026-05-05 22:27 31.28672 -78.14916 38094 ft 485 kts 201°
2026-05-05 22:27 31.22047 -78.16400 38075 ft 485 kts 201°
2026-05-05 22:28 31.15417 -78.17882 38097 ft 485 kts 201°
2026-05-05 22:28 31.08787 -78.19362 38097 ft 485 kts 201°
2026-05-05 22:29 31.02157 -78.20840 38095 ft 485 kts 201°
2026-05-05 22:29 30.95525 -78.22316 38074 ft 485 kts 201°
2026-05-05 22:30 30.88972 -78.23852 38092 ft 484 kts 201°
2026-05-05 22:30 30.82378 -78.25399 38096 ft 484 kts 201°
2026-05-05 22:31 30.75781 -78.26944 38094 ft 484 kts 201°
2026-05-05 22:31 30.69187 -78.28485 38059 ft 483 kts 201°
2026-05-05 22:32 30.62608 -78.30022 38088 ft 482 kts 201°
2026-05-05 22:32 30.56040 -78.31553 38090 ft 482 kts 201°
2026-05-05 22:33 30.49468 -78.33083 38086 ft 482 kts 201°
2026-05-05 22:33 30.42822 -78.34327 38009 ft 496 kts 187°
2026-05-05 22:33 30.39356 -78.33854 38070 ft 510 kts 173°
2026-05-05 22:34 30.35899 -78.32826 38084 ft 515 kts 172°
2026-05-05 22:34 30.28966 -78.30689 38092 ft 516 kts 171°
2026-05-05 22:35 30.22037 -78.28490 38087 ft 516 kts 171°
2026-05-05 22:35 30.15114 -78.26291 38089 ft 516 kts 171°
2026-05-05 22:36 30.08187 -78.24093 38085 ft 516 kts 171°
2026-05-05 22:36 30.01262 -78.21898 38086 ft 516 kts 171°
2026-05-05 22:37 29.94334 -78.19706 38080 ft 516 kts 171°
2026-05-05 22:37 29.87407 -78.17518 38083 ft 516 kts 171°
2026-05-05 22:38 29.80491 -78.15336 38082 ft 514 kts 171°
2026-05-05 22:38 29.73593 -78.13163 38083 ft 514 kts 171°
2026-05-05 22:39 29.66700 -78.10994 38080 ft 514 kts 171°
2026-05-05 22:39 29.59803 -78.08828 38081 ft 514 kts 171°
2026-05-05 22:40 29.52912 -78.06666 38077 ft 513 kts 171°
2026-05-05 22:40 29.46032 -78.04512 38082 ft 512 kts 171°
2026-05-05 22:41 29.39154 -78.02360 38084 ft 512 kts 171°
2026-05-05 22:41 29.32323 -78.00226 38084 ft 512 kts 171°
2026-05-05 22:42 29.25445 -77.98081 38054 ft 512 kts 171°
2026-05-05 22:42 29.18563 -77.95937 38076 ft 513 kts 171°
2026-05-05 22:43 29.11686 -77.93798 38076 ft 512 kts 171°
2026-05-05 22:43 29.04815 -77.91664 38076 ft 512 kts 171°
2026-05-05 22:44 28.97939 -77.89531 38030 ft 512 kts 172°
2026-05-05 22:44 28.91063 -77.87401 38082 ft 513 kts 172°
2026-05-05 22:45 28.84180 -77.85271 38076 ft 512 kts 172°
2026-05-05 22:45 28.77297 -77.83145 38075 ft 512 kts 172°
2026-05-05 22:46 28.70415 -77.81022 38075 ft 512 kts 172°
2026-05-05 22:46 28.63533 -77.78902 38075 ft 513 kts 172°
2026-05-05 22:47 28.56640 -77.76781 38071 ft 513 kts 172°
2026-05-05 22:47 28.49750 -77.74664 38073 ft 513 kts 172°
2026-05-05 22:48 28.44023 -77.72907 38073 ft 513 kts 172°
2026-05-05 22:48 28.37128 -77.70794 38046 ft 513 kts 172°
2026-05-05 22:49 28.30216 -77.68678 38073 ft 515 kts 172°
2026-05-05 22:49 28.23302 -77.66564 38071 ft 515 kts 172°
2026-05-05 22:50 28.16386 -77.64452 38067 ft 515 kts 172°
2026-05-05 22:50 28.09461 -77.63153 38051 ft 496 kts 187°
2026-05-05 22:51 28.02508 -77.62731 38065 ft 502 kts 186°
2026-05-05 22:51 27.95538 -77.62329 38060 ft 501 kts 186°
2026-05-05 22:52 27.88618 -77.61935 38062 ft 501 kts 186°
2026-05-05 22:52 27.81607 -77.61538 38058 ft 501 kts 186°
2026-05-05 22:53 27.74685 -77.61145 38060 ft 502 kts 186°
2026-05-05 22:53 27.67701 -77.60750 38057 ft 502 kts 186°
2026-05-05 22:54 27.60721 -77.60355 38056 ft 502 kts 186°
2026-05-05 22:54 27.53742 -77.59961 38056 ft 502 kts 186°
2026-05-05 22:55 27.46761 -77.59568 38038 ft 502 kts 186°
2026-05-05 22:55 27.39820 -77.59177 38071 ft 496 kts 186°
2026-05-05 22:56 27.32942 -77.58790 38051 ft 494 kts 186°
2026-05-05 22:56 27.26071 -77.58404 38049 ft 495 kts 186°
2026-05-05 22:56 27.22647 -77.58212 37925 ft 489 kts 186°
2026-05-05 22:57 27.19244 -77.58021 37096 ft 493 kts 185°
2026-05-05 22:57 27.15790 -77.57829 36084 ft 501 kts 185°
2026-05-05 22:57 27.12280 -77.57632 35111 ft 509 kts 184°
2026-05-05 22:57 27.08734 -77.57432 34425 ft 509 kts 184°
2026-05-05 22:58 27.05220 -77.57235 33970 ft 503 kts 183°
2026-05-05 22:58 27.01745 -77.57041 33444 ft 497 kts 184°
2026-05-05 22:58 26.98309 -77.56828 32955 ft 492 kts 183°
2026-05-05 22:58 26.94912 -77.56611 32472 ft 486 kts 183°
2026-05-05 22:59 26.91557 -77.56399 31976 ft 481 kts 183°
2026-05-05 22:59 26.88237 -77.56190 31525 ft 475 kts 184°
2026-05-05 22:59 26.84950 -77.55983 31086 ft 470 kts 184°
2026-05-05 22:59 26.81703 -77.55778 30654 ft 465 kts 184°
2026-05-05 23:00 26.75315 -77.55376 29799 ft 454 kts 184°
2026-05-05 23:00 26.72177 -77.55178 29329 ft 449 kts 184°
2026-05-05 23:00 26.69109 -77.54985 28806 ft 446 kts 184°
2026-05-05 23:01 26.65983 -77.54789 28315 ft 442 kts 183°
2026-05-05 23:01 26.62921 -77.54597 27819 ft 439 kts 183°
2026-05-05 23:01 26.59879 -77.54406 27335 ft 436 kts 183°
2026-05-05 23:01 26.56861 -77.54217 26876 ft 433 kts 183°
2026-05-05 23:02 26.53864 -77.54029 26417 ft 430 kts 183°
2026-05-05 23:02 26.50888 -77.53842 25984 ft 427 kts 182°
2026-05-05 23:02 26.47932 -77.53657 25551 ft 424 kts 182°
2026-05-05 23:02 26.44993 -77.53473 25127 ft 421 kts 182°
2026-05-05 23:03 26.42074 -77.53291 24705 ft 419 kts 182°
2026-05-05 23:03 26.39210 -77.53111 24302 ft 417 kts 182°
2026-05-05 23:03 26.36325 -77.52931 23904 ft 414 kts 182°
2026-05-05 23:03 26.33458 -77.52752 23490 ft 412 kts 182°
2026-05-05 23:04 26.30606 -77.52574 23040 ft 409 kts 182°
2026-05-05 23:04 26.27779 -77.52398 22626 ft 405 kts 182°
2026-05-05 23:04 26.24976 -77.52223 22214 ft 402 kts 181°
2026-05-05 23:04 26.22195 -77.52050 21806 ft 399 kts 181°
2026-05-05 23:05 26.19433 -77.51877 21413 ft 396 kts 181°
2026-05-05 23:05 26.16694 -77.51707 21020 ft 393 kts 181°
2026-05-05 23:05 26.13975 -77.51538 20642 ft 390 kts 181°
2026-05-05 23:05 26.11274 -77.51370 20258 ft 387 kts 181°
2026-05-05 23:06 26.08594 -77.51203 19888 ft 384 kts 181°
2026-05-05 23:06 26.05934 -77.51038 19522 ft 382 kts 181°
2026-05-05 23:06 26.03290 -77.50873 19154 ft 379 kts 180°
2026-05-05 23:06 26.00669 -77.50710 18788 ft 376 kts 180°
2026-05-05 23:07 25.98062 -77.50548 18440 ft 374 kts 180°
2026-05-05 23:07 25.95474 -77.50388 18044 ft 371 kts 180°
2026-05-05 23:07 25.92908 -77.50228 17654 ft 368 kts 180°
2026-05-05 23:07 25.90360 -77.50070 17266 ft 365 kts 180°
2026-05-05 23:08 25.87833 -77.49913 16887 ft 362 kts 180°
2026-05-05 23:08 25.85324 -77.49756 16502 ft 360 kts 180°
2026-05-05 23:08 25.82837 -77.49602 16131 ft 357 kts 180°
2026-05-05 23:08 25.80368 -77.49449 15767 ft 354 kts 180°
2026-05-05 23:09 25.77915 -77.49296 15405 ft 351 kts 180°
2026-05-05 23:09 25.75484 -77.49145 15049 ft 349 kts 180°
2026-05-05 23:09 25.73068 -77.48995 14701 ft 346 kts 180°
2026-05-05 23:09 25.70671 -77.48847 14342 ft 344 kts 180°
2026-05-05 23:10 25.68299 -77.48745 14018 ft 338 kts 187°
2026-05-05 23:10 25.65987 -77.49064 13665 ft 333 kts 192°
2026-05-05 23:10 25.63695 -77.49412 13264 ft 331 kts 191°
2026-05-05 23:10 25.61421 -77.49748 13018 ft 327 kts 191°
2026-05-05 23:11 25.59157 -77.50077 12984 ft 329 kts 191°
2026-05-05 23:11 25.56881 -77.50405 12988 ft 330 kts 191°
2026-05-05 23:11 25.54602 -77.50732 12987 ft 330 kts 191°
2026-05-05 23:11 25.52325 -77.51059 12987 ft 330 kts 191°
2026-05-05 23:12 25.50044 -77.51386 12985 ft 330 kts 191°
2026-05-05 23:12 25.47765 -77.51712 12987 ft 330 kts 191°
2026-05-05 23:12 25.45488 -77.52038 12987 ft 330 kts 191°
2026-05-05 23:12 25.43209 -77.52364 12986 ft 330 kts 191°
2026-05-05 23:13 25.40930 -77.52690 12975 ft 330 kts 191°
2026-05-05 23:13 25.38657 -77.53015 12981 ft 329 kts 191°
2026-05-05 23:13 25.36388 -77.53339 12984 ft 329 kts 191°
2026-05-05 23:13 25.34119 -77.53663 12985 ft 329 kts 191°
2026-05-05 23:14 25.31849 -77.53987 12986 ft 329 kts 191°
2026-05-05 23:14 25.29578 -77.54311 12995 ft 329 kts 191°
2026-05-05 23:14 25.27309 -77.54635 12996 ft 329 kts 191°
2026-05-05 23:14 25.25043 -77.54972 12997 ft 328 kts 194°
2026-05-05 23:15 25.22995 -77.55912 12972 ft 316 kts 221°
2026-05-05 23:15 25.21442 -77.57607 13005 ft 315 kts 228°
2026-05-05 23:15 25.19788 -77.59201 12985 ft 319 kts 213°
2026-05-05 23:15 25.17657 -77.59917 12988 ft 329 kts 185°
2026-05-05 23:16 25.15406 -77.59360 12992 ft 341 kts 155°
2026-05-05 23:16 25.13593 -77.57654 13010 ft 349 kts 131°
2026-05-05 23:16 25.12058 -77.55572 13000 ft 350 kts 134°
2026-05-05 23:16 25.10445 -77.53614 13003 ft 350 kts 135°
2026-05-05 23:17 25.08774 -77.51661 13007 ft 350 kts 136°
2026-05-05 23:17 25.07084 -77.49729 13010 ft 350 kts 137°
2026-05-05 23:17 25.05385 -77.47811 13012 ft 350 kts 137°
2026-05-05 23:17 25.03639 -77.45951 12998 ft 347 kts 147°
2026-05-05 23:18 25.01525 -77.44792 12998 ft 337 kts 169°
2026-05-05 23:18 24.99225 -77.44412 13021 ft 334 kts 178°
2026-05-05 23:18 24.96908 -77.44135 13009 ft 335 kts 177°
2026-05-05 23:18 24.94591 -77.43804 13011 ft 336 kts 176°
2026-05-05 23:19 24.92281 -77.43411 13008 ft 336 kts 174°
2026-05-05 23:19 24.89975 -77.42953 13006 ft 337 kts 173°
2026-05-05 23:19 24.87679 -77.42430 13004 ft 337 kts 171°
2026-05-05 23:19 24.85389 -77.41839 13000 ft 338 kts 170°
2026-05-05 23:20 24.83112 -77.41179 12998 ft 339 kts 168°
2026-05-05 23:20 24.80848 -77.40449 12994 ft 339 kts 167°
2026-05-05 23:20 24.78602 -77.39648 12983 ft 340 kts 165°
2026-05-05 23:20 24.76371 -77.38774 12986 ft 340 kts 163°
2026-05-05 23:21 24.74165 -77.37827 12985 ft 341 kts 161°
2026-05-05 23:21 24.71981 -77.36803 12986 ft 342 kts 159°
2026-05-05 23:21 24.69823 -77.35699 12984 ft 342 kts 158°
2026-05-05 23:21 24.67698 -77.34516 12983 ft 343 kts 155°
2026-05-05 23:22 24.65605 -77.33249 12986 ft 344 kts 153°
2026-05-05 23:22 24.63550 -77.31898 12985 ft 344 kts 151°
2026-05-05 23:22 24.61540 -77.30463 12984 ft 345 kts 149°
2026-05-05 23:22 24.59574 -77.28940 12984 ft 346 kts 147°
2026-05-05 23:23 24.57663 -77.27329 12981 ft 347 kts 144°
2026-05-05 23:23 24.55809 -77.25628 12983 ft 348 kts 142°
2026-05-05 23:23 24.54021 -77.23838 12983 ft 348 kts 139°
2026-05-05 23:23 24.52305 -77.21954 12984 ft 350 kts 136°
2026-05-05 23:24 24.50668 -77.19971 12987 ft 351 kts 133°
2026-05-05 23:24 24.49120 -77.17895 12987 ft 352 kts 130°
2026-05-05 23:24 24.47669 -77.15726 12986 ft 353 kts 127°
2026-05-05 23:24 24.46328 -77.13469 12987 ft 354 kts 123°
2026-05-05 23:25 24.45105 -77.11125 12981 ft 354 kts 120°
2026-05-05 23:25 24.44013 -77.08701 12980 ft 354 kts 116°
2026-05-05 23:25 24.43069 -77.06203 12986 ft 355 kts 112°
2026-05-05 23:25 24.42288 -77.03633 12989 ft 355 kts 107°
2026-05-05 23:26 24.41694 -77.01035 12992 ft 356 kts 102°
2026-05-05 23:26 24.41290 -76.98354 12990 ft 356 kts 97°
2026-05-05 23:26 24.41103 -76.95645 12990 ft 357 kts 91°
2026-05-05 23:26 24.41157 -76.92924 12990 ft 357 kts 85°
2026-05-05 23:27 24.41484 -76.90195 12989 ft 356 kts 78°
2026-05-05 23:27 24.42086 -76.87599 12987 ft 356 kts 70°
2026-05-05 23:27 24.43021 -76.85057 12992 ft 354 kts 62°
2026-05-05 23:27 24.44247 -76.82764 12992 ft 353 kts 52°
2026-05-05 23:28 24.45831 -76.80675 12990 ft 351 kts 41°
2026-05-05 23:28 24.47698 -76.78980 12987 ft 347 kts 30°
2026-05-05 23:28 24.49792 -76.77792 12987 ft 342 kts 16°
2026-05-05 23:28 24.52078 -76.77198 12985 ft 335 kts
2026-05-05 23:29 24.54392 -76.77171 12991 ft 333 kts 356°
2026-05-05 23:29 24.56690 -76.77330 12978 ft 328 kts 344°
2026-05-05 23:29 24.58732 -76.78293 12976 ft 317 kts 318°
2026-05-05 23:29 24.60184 -76.80070 13001 ft 313 kts 306°
2026-05-05 23:30 24.61663 -76.81842 12994 ft 315 kts 310°
2026-05-05 23:30 24.62683 -76.83023 13004 ft 316 kts 310°
2026-05-05 23:30 24.64678 -76.85348 12993 ft 315 kts 310°
2026-05-05 23:30 24.66179 -76.87106 12994 ft 316 kts 310°
2026-05-05 23:31 24.67684 -76.88870 12997 ft 316 kts 310°
2026-05-05 23:31 24.69187 -76.90633 12993 ft 316 kts 310°
2026-05-05 23:31 24.70690 -76.92398 12992 ft 316 kts 310°
2026-05-05 23:31 24.72192 -76.94162 12990 ft 316 kts 310°
2026-05-05 23:32 24.73695 -76.95928 12988 ft 316 kts 310°
2026-05-05 23:32 24.75197 -76.97694 12988 ft 316 kts 310°
2026-05-05 23:32 24.76699 -76.99461 12994 ft 316 kts 310°
2026-05-05 23:32 24.78202 -77.01229 12991 ft 316 kts 310°
2026-05-05 23:33 24.79704 -77.02998 12990 ft 316 kts 310°
2026-05-05 23:33 24.81208 -77.04768 12990 ft 316 kts 310°
2026-05-05 23:33 24.82711 -77.06538 12989 ft 316 kts 310°
2026-05-05 23:33 24.84213 -77.08309 12989 ft 316 kts 310°
2026-05-05 23:34 24.85715 -77.10079 12988 ft 316 kts 310°
2026-05-05 23:34 24.87219 -77.11852 12989 ft 316 kts 310°
2026-05-05 23:34 24.88720 -77.13623 12991 ft 316 kts 310°
2026-05-05 23:34 24.90221 -77.15395 12992 ft 316 kts 310°
2026-05-05 23:35 24.91722 -77.17167 12997 ft 317 kts 310°
2026-05-05 23:35 24.93225 -77.18942 12998 ft 317 kts 310°
2026-05-05 23:35 24.94725 -77.20715 12998 ft 317 kts 310°
2026-05-05 23:35 24.96227 -77.22490 13000 ft 317 kts 310°
2026-05-05 23:36 24.97222 -77.23668 13001 ft 317 kts 310°
2026-05-05 23:36 24.98707 -77.25424 12725 ft 310 kts 310°
2026-05-05 23:36 25.00153 -77.27136 12300 ft 300 kts 310°
2026-05-05 23:36 25.01551 -77.28790 11906 ft 290 kts 310°
2026-05-05 23:37 25.02910 -77.30399 11428 ft 284 kts 309°
2026-05-05 23:37 25.04254 -77.31991 10870 ft 283 kts 309°
2026-05-05 23:37 25.05587 -77.33571 10334 ft 281 kts 309°
2026-05-05 23:37 25.06913 -77.35142 9816 ft 278 kts 309°
2026-05-05 23:38 25.08227 -77.36699 9228 ft 276 kts 310°
2026-05-05 23:38 25.09532 -77.38246 8664 ft 274 kts 310°
2026-05-05 23:38 25.10821 -77.39775 8226 ft 268 kts 309°
2026-05-05 23:38 25.12067 -77.41254 7915 ft 258 kts 309°
2026-05-05 23:39 25.13266 -77.42678 7630 ft 248 kts 309°
2026-05-05 23:39 25.14417 -77.44044 7368 ft 238 kts 309°
2026-05-05 23:39 25.15519 -77.45355 7116 ft 228 kts 309°
2026-05-05 23:39 25.16583 -77.46619 6784 ft 223 kts 310°
2026-05-05 23:40 25.17641 -77.47875 6359 ft 223 kts 310°
2026-05-05 23:40 25.18693 -77.49125 5952 ft 219 kts 310°
2026-05-05 23:40 25.19726 -77.50355 5406 ft 220 kts 310°
2026-05-05 23:40 25.20771 -77.51597 4834 ft 221 kts 311°
2026-05-05 23:41 25.21812 -77.52842 4299 ft 220 kts 309°
2026-05-05 23:41 25.22471 -77.54327 3755 ft 216 kts 279°
2026-05-05 23:41 25.22348 -77.55962 3211 ft 217 kts 250°
2026-05-05 23:41 25.21546 -77.57338 2810 ft 211 kts 228°
2026-05-05 23:42 25.20575 -77.58457 2714 ft 191 kts 227°
2026-05-05 23:42 25.19670 -77.59480 2689 ft 185 kts 227°
2026-05-05 23:42 25.18643 -77.60325 2667 ft 187 kts 201°
2026-05-05 23:42 25.17350 -77.60402 2672 ft 191 kts 167°
2026-05-05 23:43 25.16193 -77.59690 2655 ft 194 kts 140°
2026-05-05 23:43 25.15214 -77.58653 2545 ft 196 kts 137°
2026-05-05 23:43 25.14249 -77.57606 2306 ft 192 kts 137°
2026-05-05 23:43 25.13325 -77.56594 2157 ft 182 kts 137°
2026-05-05 23:44 25.12442 -77.55626 2017 ft 178 kts 136°
2026-05-05 23:44 25.11567 -77.54663 1842 ft 178 kts 137°
2026-05-05 23:44 25.10715 -77.53720 1685 ft 166 kts 137°
2026-05-05 23:44 25.09929 -77.52845 1639 ft 158 kts 137°
2026-05-05 23:45 25.09164 -77.51996 1388 ft 154 kts 137°
2026-05-05 23:45 25.08412 -77.51164 1073 ft 152 kts 137°
2026-05-05 23:45 25.07675 -77.50335 812 ft 150 kts 137°
2026-05-05 23:45 25.06947 -77.49516 606 ft 150 kts 138°
2026-05-05 23:46 25.06205 -77.48697 375 ft 152 kts 138°
2026-05-05 23:46 25.05459 -77.47881 147 ft 151 kts 137°
2026-05-05 23:46 25.04731 -77.47067 26 ft 140 kts 135°
2026-05-05 23:46 25.04263 -77.46550 21 ft 38 kts 134°
2026-05-05 23:47 25.04129 -77.46332 20 ft 22 kts 105°
2026-05-05 23:47 25.04095 -77.46205 20 ft 17 kts 101°
2026-05-05 23:47 25.04131 -77.46152 19 ft 9 kts 339°
2026-05-05 23:47 25.04185 -77.46205 21 ft 12 kts 314°
2026-05-05 23:48 25.04252 -77.46280 21 ft 15 kts 314°
2026-05-05 23:48 25.04333 -77.46370 20 ft 18 kts 314°
2026-05-05 23:48 25.04421 -77.46469 22 ft 18 kts 314°
2026-05-05 23:48 25.04505 -77.46562 20 ft 16 kts 315°
2026-05-05 23:49 25.04580 -77.46646 22 ft 14 kts 315°
2026-05-05 23:49 25.04647 -77.46719 20 ft 13 kts 315°
2026-05-05 23:49 25.04706 -77.46782 20 ft 11 kts 316°
2026-05-05 23:49 25.04758 -77.46837 22 ft 10 kts 315°
2026-05-05 23:50 25.04801 -77.46885 22 ft 8 kts 314°
2026-05-05 23:50 25.04839 -77.46929 20 ft 8 kts 314°
2026-05-05 23:50 25.04891 -77.46950 20 ft 8 kts 17°
2026-05-05 23:50 25.04938 -77.46926 20 ft 7 kts 20°
2026-05-05 23:51 25.04968 -77.46898 19 ft 5 kts 56°
2026-05-05 23:51 25.04993 -77.46881 19 ft 4 kts
2026-05-05 23:51 25.05021 -77.46884 19 ft 6 kts 352°
2026-05-05 23:51 25.05035 -77.46887 19 ft 0 kts 352°